Location: Newark
(34.0131°N, 4.3314°W)
Time: 05:46:38
(UTC+00:00)

Explorer 11/Cluster Stage 4 - Pass Details

Date: 01 November 2019
Orbit: 467 x 1259 km, 28.8° (Epoch: 17 November)

Event Time Altitude Azimuth Distance (km) Brightness Sun altitude
Rises 01:02:10 0° 199° (SSW) 4,118 - -65.9°
Reaches altitude 10° 01:07:54 10° 167° (SSE) 3,018 - -65.1°
Maximum altitude 01:09:50 11° 152° (SSE) 2,873 - -64.9°
Drops below altitude 10° 01:11:44 10° 137° (SE) 2,890 - -64.6°
Sets 01:16:45 0° 104° (ESE) 3,632 - -63.9°
